Falls City, NE

3:20 AM CDT on April 21, 2018 (GMT -0500)
Brenner

Weather History for KFNB - August, 2014

Change the Weather History Date:

Wednesday, August 27, 2014

  Actual Average Record
Temperature  
Mean Temperature 76 °F -  
Max Temperature 82 °F 87 °F 105 °F (1983)
Min Temperature 70 °F 62 °F 50 °F (1967)
Cooling Degree Days 10    
Growing Degree Days 26 (Base 50)    
Moisture  
Dew Point 69 °F    
Average Humidity 88    
Maximum Humidity 97    
Minimum Humidity 71    
Precipitation  
Precipitation 0.61 in - - ()
Sea Level Pressure  
Sea Level Pressure 30.08 in    
Wind  
Wind Speed 7 mph (ESE)    
Max Wind Speed 15 mph    
Max Gust Speed 18 mph    
Visibility 9 miles    
Events Rain , Thunderstorm    
Averages and records for this station are not official NWS values.
T = Trace of Precipitation, MM = Missing Value Source: NWS Daily Summary

Daily Weather History Graph

Daily Weather History Graph

Search for Another Location

Airport or City:

Astronomy

Aug. 27, 2014 Rise Set
Actual Time 6:45 AM CDT 8:01 PM CDT
Civil Twilight 6:17 AM CDT 8:29 PM CDT
Nautical Twilight 5:43 AM CDT 9:03 PM CDT
Astronomical Twilight 5:08 AM CDT 9:38 PM CDT
Moon 8:42 AM CDT (8/27) 8:54 PM CDT (8/27)
Length of Visible Light 14h 12m
Length of Day
13h 16m
Waxing Crescent, 4% of the Moon is Illuminated
Aug 27
Waxing Crescent
Sep 2
First Quarter
Sep 8
Full
Sep 15
Last Quarter
Sep 24
New

Hourly Weather History & Observations

Time (CDT) Temp. Heat Index Dew Point Humidity Pressure Visibility Wind Dir Wind Speed Gust Speed Precip Events Conditions
12:53 AM 72.0 °F - 70.0 °F 93% 30.06 in 10.0 mi East 4.6 mph - N/A   Scattered Clouds
1:53 AM 73.0 °F - 70.0 °F 90% 30.06 in 10.0 mi ENE 4.6 mph - N/A   Partly Cloudy
2:53 AM 72.0 °F - 70.0 °F 93% 30.04 in 10.0 mi East 3.5 mph - N/A   Scattered Clouds
3:24 AM 72.0 °F - 70.0 °F 93% 30.07 in 10.0 mi NNW 4.6 mph - N/A Thunderstorm Mostly Cloudy
3:44 AM 72.0 °F - 70.0 °F 93% 30.06 in 10.0 mi NE 4.6 mph - N/A   Mostly Cloudy
3:53 AM 72.0 °F - 70.0 °F 93% 30.04 in 10.0 mi NNE 6.9 mph - N/A   Mostly Cloudy
4:17 AM 72.0 °F - 69.1 °F 91% 30.06 in 10.0 mi NE 8.1 mph - N/A   Overcast
4:40 AM 72.0 °F - 69.1 °F 91% 30.06 in 10.0 mi NNE 10.4 mph - N/A Thunderstorm Overcast
4:53 AM 72.0 °F - 68.0 °F 87% 30.05 in 10.0 mi NNE 10.4 mph - N/A Thunderstorm Overcast
5:31 AM 72.0 °F - 69.1 °F 91% 30.07 in 10.0 mi ENE 15.0 mph - N/A Thunderstorm Overcast
5:53 AM 72.0 °F - 66.9 °F 84% 30.06 in 10.0 mi ENE 8.1 mph 17.3 mph N/A Thunderstorm Overcast
6:02 AM 71.6 °F - 66.2 °F 83% 30.10 in 10.0 mi ENE 8.1 mph - N/A Thunderstorm Thunderstorm
6:11 AM 72.0 °F - 66.0 °F 81% 30.09 in 10.0 mi SE 6.9 mph - N/A   Overcast
6:18 AM 71.1 °F - 66.0 °F 84% 30.09 in 10.0 mi East 8.1 mph - N/A Thunderstorm Overcast
6:53 AM 70.0 °F - 66.0 °F 87% 30.05 in 10.0 mi ESE 9.2 mph - 0.07 in Thunderstorm Mostly Cloudy
7:07 AM 70.0 °F - 66.9 °F 90% 30.07 in 10.0 mi ESE 10.4 mph - N/A   Scattered Clouds
7:53 AM 70.0 °F - 68.0 °F 93% 30.08 in 10.0 mi South 6.9 mph - N/A   Mostly Cloudy
8:01 AM 70.0 °F - 68.0 °F 93% 30.10 in 10.0 mi SSE 9.2 mph - N/A   Scattered Clouds
8:11 AM 70.0 °F - 68.0 °F 93% 30.09 in 10.0 mi SSE 6.9 mph - N/A   Mostly Cloudy
8:18 AM 70.0 °F - 68.0 °F 93% 30.10 in 10.0 mi SE 9.2 mph - 0.00 in Rain Light Rain
8:53 AM 70.0 °F - 68.0 °F 93% 30.09 in 10.0 mi SSE 8.1 mph - 0.01 in Rain Light Rain
9:16 AM 71.1 °F - 68.0 °F 90% 30.11 in 10.0 mi SE 8.1 mph - 0.00 in   Overcast
9:25 AM 71.1 °F - 69.1 °F 93% 30.12 in 10.0 mi SSE 6.9 mph - 0.00 in Thunderstorm Overcast
9:33 AM 71.1 °F - 69.1 °F 93% 30.12 in 10.0 mi ESE 9.2 mph - 0.00 in Thunderstorm Overcast
9:53 AM 71.1 °F - 69.1 °F 93% 30.12 in 10.0 mi SE 10.4 mph - 0.00 in   Overcast
10:07 AM 71.1 °F - 68.0 °F 90% 30.14 in 10.0 mi SE 11.5 mph - N/A   Overcast
10:12 AM 71.1 °F - 68.0 °F 90% 30.15 in 9.0 mi SE 8.1 mph - 0.01 in Rain , Thunderstorm Light Rain
10:20 AM 71.1 °F - 68.0 °F 90% 30.15 in 2.5 mi SE 9.2 mph - 0.10 in Rain , Thunderstorm Heavy Rain
10:33 AM 71.1 °F - 68.0 °F 90% 30.15 in 2.0 mi SE 10.4 mph - 0.22 in Rain Heavy Rain
10:39 AM 71.1 °F - 66.9 °F 87% 30.14 in 1.8 mi SE 9.2 mph - 0.26 in Rain , Thunderstorm Heavy Rain
10:46 AM 71.1 °F - 66.9 °F 87% 30.14 in 2.0 mi ESE 12.7 mph 18.4 mph 0.32 in Rain , Thunderstorm Heavy Rain
10:53 AM 71.1 °F - 66.9 °F 87% 30.13 in 3.0 mi ESE 10.4 mph 18.4 mph 0.34 in Rain Rain
11:15 AM 70.0 °F - 69.1 °F 97% 30.13 in 2.5 mi ESE 12.7 mph - 0.10 in Rain Heavy Rain
11:22 AM 70.0 °F - 68.0 °F 93% 30.12 in 4.0 mi SE 11.5 mph - 0.11 in Rain Light Rain
11:53 AM 70.0 °F - 69.1 °F 97% 30.12 in 6.0 mi SE 6.9 mph - 0.17 in Rain Light Rain
12:39 PM 71.1 °F - 70.0 °F 96% 30.13 in 10.0 mi ESE 4.6 mph - 0.02 in   Scattered Clouds
12:53 PM 72.0 °F - 70.0 °F 93% 30.11 in 10.0 mi East 4.6 mph - 0.02 in Rain Light Rain
1:53 PM 73.4 °F - 69.8 °F 88% 30.12 in 10.0 mi ESE 8.1 mph - N/A   Overcast
2:20 PM 78.1 °F - 72.0 °F 81% 30.11 in 10.0 mi SSE 6.9 mph - N/A   Scattered Clouds
2:53 PM 79.0 °F - 71.1 °F 77% 30.08 in 10.0 mi East 4.6 mph - N/A   Scattered Clouds
3:53 PM 80.1 °F 83.2 °F 70.0 °F 71% 30.06 in 10.0 mi ESE 3.5 mph - N/A   Partly Cloudy
4:10 PM 81.0 °F 84.9 °F 71.1 °F 72% 30.07 in 10.0 mi ESE 5.8 mph - N/A   Mostly Cloudy
4:18 PM 81.0 °F 84.9 °F 71.1 °F 72% 30.07 in 10.0 mi East 3.5 mph - N/A   Scattered Clouds
4:53 PM 80.6 °F 84.6 °F 71.6 °F 74% 30.06 in 10.0 mi ESE 4.6 mph - N/A   Partly Cloudy
5:53 PM 80.1 °F 84.2 °F 73.0 °F 79% 30.02 in 10.0 mi East 3.5 mph - N/A   Partly Cloudy
6:53 PM 78.1 °F - 73.0 °F 84% 30.01 in 10.0 mi East 5.8 mph - N/A   Clear
7:53 PM 75.9 °F - 72.0 °F 87% 30.01 in 10.0 mi East 5.8 mph - 0.00 in   Partly Cloudy
8:53 PM 75.0 °F - 72.0 °F 90% 30.01 in 10.0 mi East 6.9 mph - N/A   Clear
9:53 PM 73.0 °F - 70.0 °F 90% 30.02 in 10.0 mi East 8.1 mph - N/A   Clear
10:53 PM 72.0 °F - 69.1 °F 91% 30.01 in 10.0 mi East 8.1 mph - N/A   Clear
11:53 PM 72.0 °F - 69.1 °F 91% 30.01 in 10.0 mi East 6.9 mph - N/A   Mostly Cloudy